User: anonymous   Login
Location: Waldport
(44.4270°N, 124.0680°W)
Time: 02:27:38
(UTC-07:00)
Language:

Cosmos 1570 Rocket - Orbit

View from above orbital plane
View from above orbital plane
View from above satellite
View from above satellite

Ground track
Ground track

The orbit data is extracted from the following two-line orbital elements,

1 15032U 84056B   18115.74161281 +.00000004 +00000-0 +10499-4 0  9991
2 15032 074.0715 224.8348 0018273 306.4404 053.5063 14.34749123771476
Epoch (UTC): 25 April 2018 17:47:55
Eccentricity: 0.0018273
inclination: 74.0715°
perigee height: 763 km
apogee height: 789 km
right ascension of ascending node: 224.8348°
argument of perigee: 306.4404°
revolutions per day: 14.34749123
mean anomaly at epoch: 53.5063°
orbit number at epoch: 77147

The dashed part of the orbit path shows where the satellite is in the earth's shadow,  

DLR